{"data":{"norad_id":66772,"epoch":"2026-09-20T22:34:49.188576Z","epoch_age_seconds":79499,"freshness":"FRESH","line1":"1 66772U 25276DL  26263.94084709  .00004023  00000+0  17695-3 0  9999","line2":"2 66772  97.4156 336.7055 0000886 155.8960 204.2318 15.22448140 45018","mean_motion":15.2244814,"eccentricity":8.86e-5,"inclination_deg":97.4156,"raan_deg":336.7055,"arg_perigee_deg":155.896,"mean_anomaly_deg":204.2318,"bstar":0.00017695,"rev_number":4501,"period_min":94.584502563089,"perigee_km":497.84961332205,"apogee_km":499.06814611194,"semimajor_km":6876.595879717,"source":"CELESTRAK","updated_at":"2026-09-21T09:00:16.186469Z"}}